Weather History for St. Joseph, MO

Change the Weather History Date:

Saturday, November 5, 2011

  Actual Average Record
Temperature  
Mean Temperature 52 °F 47 °F  
Max Temperature 60 °F 58 °F 81 °F (1924)
Min Temperature 43 °F 36 °F 17 °F (1959)
Degree Days  
Heating Degree Days 13 18  
Month to date heating degree days 78 86  
Since 1 July heating degree days 417 505  
Cooling Degree Days 0 0  
Month to date cooling degree days 0 0  
Year to date cooling degree days 494 1220  
Growing Degree Days 1 (Base 50)    
Moisture  
Dew Point 43 °F    
Average Humidity 76    
Maximum Humidity 96    
Minimum Humidity 55    
Precipitation  
Precipitation 0.00 in 0.08 in 0.61 in (2013)
Month to date precipitation 0.25 0.43  
Year to date precipitation 14.20 32.96  
Sea Level Pressure  
Sea Level Pressure 29.93 in    
Wind  
Wind Speed 15 mph (SSE)    
Max Wind Speed 28 mph    
Max Gust Speed 33 mph    
Visibility 9 miles    
Events      
T = Trace of Precipitation, MM = Missing Value Source: NWS Daily Summary

Daily Weather History Graph

Daily Weather History Graph

Search for Another Location

Airport:

Trip Planner

Search our weather history database for the weather conditions in past years. The results will help you decide how hot, cold, wet, or windy it might be!

Date:

Astronomy

Nov. 05, 2011 Rise Set
Actual Time 7:52 AM CDT 6:13 PM CDT
Civil Twilight 7:24 AM CDT 6:41 PM CDT
Nautical Twilight 6:52 AM CDT 7:13 PM CDT
Astronomical Twilight 6:20 AM CDT 7:45 PM CDT
Moon 3:31 PM CDT (11/5) 3:03 AM CDT (11/5)
Length of Visible Light 11h 17m
Length of Day
10h 20m
Waxing Gibbous, 78% of the Moon is Illuminated
Nov 5
Waxing Gibbous
Nov 10
Full
Nov 18
Last Quarter
Nov 25
New
Dec 2
First Quarter

Hourly Weather History & Observations

Time (CDT) Temp. Windchill Dew Point Humidity Pressure Visibility Wind Dir Wind Speed Gust Speed Precip Events Conditions
12:53 AM 46.0 °F 43.1 °F 42.1 °F 86% 30.07 in 7.0 mi SSE 5.8 mph - N/A   Clear
1:53 AM 45.0 °F 41.2 °F 41.0 °F 86% 30.06 in 7.0 mi SSE 6.9 mph - N/A   Clear
2:53 AM 44.1 °F 39.5 °F 41.0 °F 89% 30.05 in 7.0 mi SSE 8.1 mph - N/A   Clear
3:53 AM 42.8 °F 40.1 °F 39.2 °F 87% 30.04 in 7.0 mi SSE 4.6 mph - N/A   Clear
4:53 AM 43.0 °F 37.7 °F 41.0 °F 93% 30.04 in 8.0 mi SSE 9.2 mph - N/A   Clear
5:53 AM 43.0 °F 37.7 °F 41.0 °F 93% 30.04 in 9.0 mi South 9.2 mph - N/A   Clear
6:53 AM 43.0 °F 38.2 °F 41.0 °F 93% 30.03 in 8.0 mi SSE 8.1 mph - N/A   Clear
7:53 AM 43.0 °F 36.8 °F 41.0 °F 93% 30.03 in 8.0 mi SSE 11.5 mph - N/A   Clear
8:53 AM 45.0 °F 39.3 °F 42.1 °F 90% 30.02 in 8.0 mi South 11.5 mph - N/A   Partly Cloudy
9:45 AM 46.4 °F 40.7 °F 42.8 °F 87% 30.01 in 9.0 mi SSE 12.7 mph 21.9 mph N/A   Mostly Cloudy
9:53 AM 48.0 °F - 43.0 °F 83% 30.01 in 9.0 mi South 15.0 mph 20.7 mph N/A   Mostly Cloudy
10:15 AM 50.0 °F - 44.6 °F 82% 30.00 in 10.0 mi South 17.3 mph 23.0 mph N/A   Scattered Clouds
10:53 AM 51.1 °F - 43.0 °F 74% 30.00 in 10.0 mi South 19.6 mph 25.3 mph N/A   Clear
11:53 AM 54.0 °F - 44.1 °F 69% 29.97 in 10.0 mi South 23.0 mph 29.9 mph N/A   Clear
12:53 PM 55.0 °F - 44.1 °F 67% 29.94 in 10.0 mi South 17.3 mph - N/A   Clear
1:53 PM 57.2 °F - 44.6 °F 63% 29.90 in 10.0 mi SSE 21.9 mph - N/A   Clear
2:53 PM 59.0 °F - 44.1 °F 58% 29.86 in 10.0 mi South 20.7 mph 27.6 mph N/A   Clear
3:53 PM 60.1 °F - 44.1 °F 55% 29.83 in 10.0 mi SSE 17.3 mph 26.5 mph N/A   Clear
4:53 PM 59.0 °F - 44.1 °F 58% 29.81 in 10.0 mi SSE 15.0 mph 23.0 mph N/A   Clear
5:53 PM 57.9 °F - 43.0 °F 58% 29.80 in 10.0 mi SSE 13.8 mph - N/A   Clear
6:53 PM 55.0 °F - 43.0 °F 64% 29.78 in 10.0 mi SE 12.7 mph - N/A   Clear
7:53 PM 54.0 °F - 43.0 °F 66% 29.77 in 10.0 mi SE 17.3 mph - N/A   Clear
8:53 PM 54.0 °F - 43.0 °F 66% 29.77 in 10.0 mi SSE 18.4 mph 25.3 mph N/A   Clear
9:53 PM 54.0 °F - 43.0 °F 66% 29.78 in 10.0 mi SSE 13.8 mph - N/A   Clear
10:53 PM 54.0 °F - 43.0 °F 66% 29.80 in 10.0 mi South 16.1 mph - N/A   Clear
11:53 PM 54.0 °F - 43.0 °F 66% 29.78 in 10.0 mi South 23.0 mph 27.6 mph N/A   Clear